Location: Athabasca
(54.7194°N, 113.2858°W)
Time: 02:40:36
(UTC+00:00)

AO-91 - Visible Passes

Search period start: 07 December 2023 00:00
Search period end: 17 December 2023 00:00
Orbit: 445 x 755 km, 97.6° (Epoch: 06 December)

Date Brightness Start Highest point End Pass type
(mag) Time Alt. Az. Time Alt. Az. Time Alt. Az.
07 Dec ? 14:41:44 10° E 14:45:20 20° NE 14:48:49 10° N visible
08 Dec ? 14:52:26 10° ESE 14:56:20 23° ENE 15:00:09 10° N visible
12 Dec ? 14:04:38 10° ENE 14:05:43 11° NE 14:06:49 10° NE visible
13 Dec ? 14:14:37 10° ENE 14:16:37 13° NE 14:18:35 10° NNE visible
14 Dec ? 14:24:56 10° E 14:27:31 15° NE 14:30:02 10° NNE visible
15 Dec ? 14:35:22 10° E 14:38:25 17° NE 14:41:21 10° NNE visible
16 Dec ? 14:45:54 10° ESE 14:49:19 20° ENE 14:52:36 10° NNE visible
